Location: Unspecified
(52.4292°N, 19.3359°E)
Time: 08:00:50
(UTC+02:00)

Altair - Pass Details

Date: 22 May 2024
Orbit: 1501 x 1682 km, 47.2° (Epoch: 26 April)

Event Time Altitude Azimuth Distance (km) Brightness Sun altitude
Rises 18:34:53 0° 286° (WNW) 4,939 12.0 16.9°
Reaches altitude 10° 18:39:48 10° 266° (W) 3,944 11.5 16.1°
Maximum altitude 18:45:01 16° 234° (SW) 3,493 10.1 15.3°
Drops below altitude 10° 18:50:13 10° 202° (SSW) 3,901 9.8 14.6°
Sets 18:55:05 0° 182° (S) 4,856 10.0 13.9°
